Weather History for Ft Lauderdale, FL

Change the Weather History Date:

Thursday, August 9, 2012

  Actual Average Record
Temperature  
Mean Temperature 86 °F 85 °F  
Max Temperature 90 °F 91 °F 96 °F (1955)
Min Temperature 82 °F 79 °F 69 °F (1917)
Degree Days  
Heating Degree Days 0 0  
Month to date heating degree days 0 0  
Since 1 June heating degree days 0  
Since 1 July heating degree days 0  
Cooling Degree Days 21 20  
Month to date cooling degree days 179 180  
Year to date cooling degree days 2778 2739  
Since 1 June cooling degree days 1321  
Growing Degree Days 36 (Base 50)    
Moisture  
Dew Point 75 °F    
Average Humidity 72    
Maximum Humidity 79    
Minimum Humidity 64    
Precipitation  
Precipitation 0.00 in 0.23 in 2.19 in (1997)
Month to date precipitation 1.79 1.96  
Year to date precipitation 34.86 35.59  
Snow  
Snow 0.00 in - - ()
Month to date snowfall 0.0  
Since 1 June snowfall 0.0  
Since 1 July snowfall 0.0  
Snow Depth 0.00 in    
Sea Level Pressure  
Sea Level Pressure 29.99 in    
Wind  
Wind Speed 9 mph (SE)    
Max Wind Speed 16 mph    
Max Gust Speed 21 mph    
Visibility 10 miles    
Events      
T = Trace of Precipitation, MM = Missing Value Source: NWS Daily Summary

Daily Weather History Graph

Daily Weather History Graph

Search for Another Location

Airport:

Trip Planner

Search our weather history database for the weather conditions in past years. The results will help you decide how hot, cold, wet, or windy it might be!

Date:

Astronomy

Aug. 09, 2012 Rise Set
Actual Time 6:50 AM EDT 8:01 PM EDT
Civil Twilight 6:26 AM EDT 8:25 PM EDT
Nautical Twilight 5:57 AM EDT 8:54 PM EDT
Astronomical Twilight 5:27 AM EDT 9:23 PM EDT
Moon 12:04 AM EDT (8/9) 1:39 PM EDT (8/9)
Length of Visible Light 13h 59m
Length of Day
13h 10m
Waning Gibbous, 51% of the Moon is Illuminated
Aug 9
Waning Gibbous
Aug 9
Last Quarter
Aug 17
New
Aug 24
First Quarter
Aug 31
Full

Hourly Weather History & Observations

Time (EDT) Temp. Heat Index Dew Point Humidity Pressure Visibility Wind Dir Wind Speed Gust Speed Precip Events Conditions
12:53 AM 82.9 °F 90.2 °F 75.0 °F 77% 30.03 in 10.0 mi ESE 9.2 mph - N/A   Partly Cloudy
1:53 AM 82.9 °F 90.8 °F 75.9 °F 79% 30.00 in 10.0 mi ESE 6.9 mph - N/A   Scattered Clouds
2:53 AM 82.9 °F 90.2 °F 75.0 °F 77% 29.97 in 10.0 mi SE 9.2 mph - N/A   Scattered Clouds
3:53 AM 82.9 °F 90.2 °F 75.0 °F 77% 29.95 in 10.0 mi ESE 9.2 mph - N/A   Scattered Clouds
4:53 AM 82.9 °F 90.2 °F 75.0 °F 77% 29.96 in 10.0 mi ESE 6.9 mph - N/A   Scattered Clouds
5:53 AM 82.9 °F 90.2 °F 75.0 °F 77% 29.97 in 10.0 mi ESE 6.9 mph - N/A   Partly Cloudy
6:53 AM 82.0 °F 88.6 °F 75.0 °F 79% 29.99 in 10.0 mi SE 6.9 mph - N/A   Scattered Clouds
7:53 AM 84.0 °F 92.6 °F 75.9 °F 76% 30.00 in 10.0 mi SE 6.9 mph - N/A   Partly Cloudy
8:53 AM 86.0 °F 96.0 °F 75.9 °F 72% 30.02 in 10.0 mi ESE 10.4 mph - N/A   Partly Cloudy
9:53 AM 86.0 °F 95.1 °F 75.0 °F 70% 30.02 in 10.0 mi ESE 6.9 mph - N/A   Partly Cloudy
10:53 AM 88.0 °F 98.5 °F 75.9 °F 67% 30.02 in 10.0 mi SE 10.4 mph - N/A   Scattered Clouds
11:53 AM 89.1 °F 99.1 °F 75.0 °F 63% 30.01 in 10.0 mi SE 9.2 mph - N/A   Partly Cloudy
12:53 PM 90.0 °F 100.2 °F 75.0 °F 61% 30.00 in 10.0 mi ESE 12.7 mph - N/A   Partly Cloudy
1:53 PM 89.1 °F 99.1 °F 75.0 °F 63% 29.99 in 10.0 mi ESE 13.8 mph 20.7 mph N/A   Partly Cloudy
2:53 PM 89.1 °F 99.1 °F 75.0 °F 63% 29.97 in 10.0 mi SE 11.5 mph 19.6 mph N/A   Scattered Clouds
3:53 PM 88.0 °F 98.5 °F 75.9 °F 67% 29.96 in 10.0 mi SE 11.5 mph - N/A   Scattered Clouds
4:53 PM 89.1 °F 100.2 °F 75.9 °F 65% 29.95 in 10.0 mi SSE 9.2 mph - N/A   Scattered Clouds
5:53 PM 88.0 °F 97.5 °F 75.0 °F 65% 29.94 in 10.0 mi ESE 13.8 mph - N/A   Scattered Clouds
6:53 PM 87.1 °F 92.0 °F 70.0 °F 57% 29.94 in 10.0 mi ESE 12.7 mph - N/A   Scattered Clouds
7:53 PM 84.9 °F 92.1 °F 73.9 °F 69% 29.95 in 10.0 mi SE 9.2 mph - N/A   Scattered Clouds
8:53 PM 82.0 °F 89.4 °F 75.9 °F 82% 29.98 in 10.0 mi SSE 6.9 mph - 0.00 in   Scattered Clouds
9:53 PM 82.9 °F 90.8 °F 75.9 °F 79% 30.00 in 10.0 mi SE 6.9 mph - N/A   Partly Cloudy
10:53 PM 82.0 °F 87.9 °F 73.9 °F 76% 30.01 in 10.0 mi SSE 13.8 mph - N/A   Scattered Clouds
11:53 PM 81.0 °F 86.2 °F 73.9 °F 79% 30.01 in 10.0 mi SSE 5.8 mph - N/A   Partly Cloudy